GW6495 Weather Reports


time (UTC)temp
C
wind
direction
speed
KPH
gust
KPH
rain 1hr
cm
rain 24hr
cm
rain mn
cm
humidity
%
barometer
mb
20260505094045 0 185 9.7 27.4 0.00 0.00 0.00 51 1016.8
20260505093522 0 331 8.0 19.3 0.00 0.00 0.00 51 1016.7
20260505093152 0 198 8.0 16.1 0.00 0.00 0.00 51 1016.7
20260505092526 0 313 3.2 9.7 0.00 0.00 0.00 53 1016.7
20260505092022 0 295 3.2 12.9 0.00 0.00 0.00 53 1016.9
20260505091631 0 314 6.4 12.9 0.00 0.00 0.00 55 1016.9
20260505091027 0 359 1.6 9.7 0.00 0.00 0.00 57 1016.9
20260505090520 0 291 3.2 9.7 0.00 0.00 0.00 58 1017.0
20260505090159 0 334 0.0 8.0 0.00 0.00 0.00 60 1017.1
20260505085525 0 302 1.6 9.7 0.00 0.00 0.00 62 1017.1
20260505085046 0 296 0.0 9.7 0.00 0.00 0.00 62 1017.1
20260505084618 0 262 0.0 1.6 0.00 0.00 0.00 62 1017.0
20260505084042 0 282 0.0 1.6 0.00 0.00 0.00 62 1017.0
20260505083545 0 282 0.0 3.2 0.00 0.00 0.00 63 1017.1
20260505083135 0 293 0.0 3.2 0.00 0.00 0.00 63 1017.0
20260505082545 0 277 0.0 1.6 0.00 0.00 0.00 63 1017.0
20260505082100 0 283 0.0 1.6 0.00 0.00 0.00 62 1017.2
20260505081629 0 297 0.0 4.8 0.00 0.00 0.00 62 1017.2
20260505081029 0 309 1.6 6.4 0.00 0.00 0.00 62 1017.3
20260505080521 0 288 1.6 6.4 0.00 0.00 0.00 62 1017.3
20260505080154 0 300 1.6 4.8 0.00 0.00 0.00 63 1017.4
20260505075537 0 291 0.0 3.2 0.00 0.00 0.00 62 1017.4
20260505075026 0 288 0.0 1.6 0.00 0.00 0.00 63 1017.4
20260505074609 0 233 0.0 1.6 0.00 0.00 0.00 64 1017.4
20260505074018 0 162 1.6 1.6 0.00 0.00 0.00 64 1017.3
20260505073540 0 163 0.0 1.6 0.00 0.00 0.00 64 1017.1
20260505073059 0 166 0.0 1.6 0.00 0.00 0.00 64 1017.0
20260505072546 0 165 0.0 3.2 0.00 0.00 0.00 64 1017.2
20260505072035 0 223 0.0 3.2 0.00 0.00 0.00 64 1017.2
20260505071617 0 158 0.0 3.2 0.00 0.00 0.00 64 1017.2
20260505071025 0 159 1.6 3.2 0.00 0.00 0.00 64 1017.2
20260505070525 0 160 1.6 3.2 0.00 0.00 0.00 63 1017.2
20260505070054 0 162 0.0 3.2 0.00 0.00 0.00 63 1017.3
20260505065526 0 165 0.0 3.2 0.00 0.00 0.00 64 1017.4
20260505065039 0 165 1.6 3.2 0.00 0.00 0.00 64 1017.4
20260505064612 0 172 1.6 3.2 0.00 0.00 0.00 64 1017.4
20260505064024 0 172 0.0 1.6 0.00 0.00 0.00 63 1017.5
20260505063546 0 160 0.0 1.6 0.00 0.00 0.00 63 1017.5
20260505063053 0 160 0.0 1.6 0.00 0.00 0.00 63 1017.5
20260505062536 0 160 0.0 3.2 0.00 0.00 0.00 63 1017.5
20260505062030 0 160 0.0 3.2 0.00 0.00 0.00 63 1017.4
20260505061612 0 160 1.6 3.2 0.00 0.00 0.00 63 1017.4
20260505061038 0 206 1.6 1.6 0.00 0.00 0.00 62 1017.4
20260505060538 0 206 1.6 3.2 0.00 0.00 0.00 62 1017.4
20260505060122 0 205 1.6 3.2 0.00 0.00 0.00 61 1017.4
20260505055515 0 240 1.6 3.2 0.00 0.00 0.00 59 1017.4
20260505055015 1 262 0.0 1.6 0.00 0.00 0.00 58 1017.4
20260505054549 1 263 0.0 1.6 0.00 0.00 0.00 58 1017.4
20260505054036 1 307 0.0 4.8 0.00 0.00 0.00 58 1017.4
20260505053531 1 307 1.6 4.8 0.00 0.00 0.00 57 1017.4
20260505053132 1 302 1.6 4.8 0.00 0.00 0.00 58 1017.4
20260505052527 1 305 1.6 6.4 0.00 0.00 0.00 57 1017.5
20260505052027 1 264 1.6 6.4 0.00 0.00 0.00 58 1017.5
20260505051611 1 250 1.6 9.7 0.00 0.00 0.00 57 1017.6
20260505051036 1 258 1.6 12.9 0.00 0.00 0.00 58 1017.6
20260505050529 1 285 3.2 12.9 0.00 0.00 0.00 57 1017.8
20260505050114 1 120 0.0 6.4 0.00 0.00 0.00 58 1017.6
20260505041558 1 311 3.2 9.7 0.00 0.00 0.00 57 1017.3
20260505041039 1 304 1.6 6.4 0.00 0.00 0.00 57 1017.3
20260505040517 2 284 3.2 11.3 0.00 0.00 0.00 57 1017.2
20260505040115 2 285 6.4 16.1 0.00 0.00 0.00 56 1017.2
20260505035517 2 303 6.4 24.1 0.00 0.00 0.00 56 1017.2
20260505035028 2 288 12.9 24.1 0.00 0.00 0.00 56 1017.2
20260505034614 2 331 6.4 16.1 0.00 0.00 0.00 57 1017.0
20260505034030 2 296 6.4 22.5 0.00 0.00 0.00 56 1017.1
20260505033519 2 314 11.3 22.5 0.00 0.00 0.00 56 1017.0
20260505033120 2 245 9.7 25.7 0.00 0.00 0.00 56 1017.1
20260505032525 2 298 9.7 25.7 0.00 0.00 0.00 57 1017.0
20260505032035 2 297 9.7 20.9 0.00 0.00 0.00 57 1016.8
20260505031604 2 288 9.7 17.7 0.00 0.00 0.00 58 1016.8
20260505031013 2 230 9.7 29.0 0.00 0.00 0.00 58 1016.7
20260505030543 2 313 9.7 29.0 0.00 0.00 0.00 58 1016.6
20260505030118 2 315 9.7 25.7 0.00 0.00 0.00 57 1016.6
20260505025536 2 305 8.0 25.7 0.00 0.00 0.00 57 1016.4
20260505025034 2 304 9.7 25.7 0.00 0.00 0.00 57 1016.3
20260505024541 2 143 11.3 30.6 0.00 0.00 0.00 57 1016.3
20260505024036 2 285 12.9 30.6 0.00 0.00 0.00 57 1016.3
20260505023534 2 316 11.3 27.4 0.00 0.00 0.00 56 1016.4
20260505023115 2 260 9.7 24.1 0.00 0.00 0.00 56 1016.3
20260505022535 2 266 9.7 24.1 0.00 0.00 0.00 56 1016.3
20260505022016 2 300 11.3 25.7 0.00 0.00 0.00 56 1016.3
20260505021621 2 323 9.7 20.9 0.00 0.00 0.00 56 1016.3
20260505021022 3 311 11.3 29.0 0.00 0.00 0.00 55 1016.3
20260505020525 3 284 12.9 29.0 0.00 0.00 0.00 56 1016.3
20260505015527 3 288 16.1 25.7 0.00 0.00 0.00 56 1016.3
20260505015035 3 292 11.3 29.0 0.00 0.00 0.00 56 1016.4
20260505014556 3 266 14.5 29.0 0.00 0.00 0.00 56 1016.5
20260505014019 3 293 17.7 33.8 0.00 0.00 0.00 56 1016.5
20260505013533 3 311 17.7 33.8 0.00 0.00 0.00 57 1016.5
20260505013110 3 327 16.1 27.4 0.00 0.00 0.00 57 1016.5
20260505012522 3 274 16.1 27.4 0.00 0.00 0.00 57 1016.5
20260505012016 3 294 14.5 33.8 0.00 0.00 0.00 57 1016.4
20260505011602 3 276 12.9 33.8 0.00 0.00 0.00 59 1016.3
20260505011017 3 299 14.5 32.2 0.00 0.00 0.00 59 1016.5
20260505010539 3 295 16.1 32.2 0.00 0.00 0.00 59 1016.5
20260505010127 3 283 16.1 30.6 0.00 0.00 0.00 62 1016.4
20260505005600 3 272 17.7 33.8 0.00 0.00 0.00 62 1016.4
20260505005035 3 307 14.5 33.8 0.00 0.00 0.00 63 1016.4
20260505004629 3 304 19.3 30.6 0.00 0.00 0.00 63 1016.3
20260505004114 3 272 14.5 30.6 0.00 0.00 0.00 64 1016.5
20260505003518 3 269 17.7 35.4 0.00 0.00 0.00 64 1016.6
20260505003129 3 323 9.7 35.4 0.00 0.00 0.00 64 1016.8
20260505002518 3 280 11.3 30.6 0.00 0.00 0.00 63 1016.7
20260505002035 4 297 14.5 30.6 0.00 0.00 0.00 63 1016.6
20260505001625 4 319 9.7 25.7 0.00 0.00 0.00 64 1016.7
20260505001034 5 179 4.8 30.6 0.00 0.00 0.00 64 1016.6
20260505000539 5 266 12.9 30.6 0.00 0.00 0.00 63 1016.7
20260505000151 5 282 14.5 27.4 0.00 0.00 0.00 63 1016.7
20260504235535 5 324 11.3 29.0 0.00 0.00 0.00 65 1016.6
20260504235034 5 314 9.7 29.0 0.00 0.00 0.00 64 1016.6
20260504234638 5 289 11.3 30.6 0.00 0.00 0.00 61 1016.6
20260504234034 5 290 8.0 30.6 0.00 0.00 0.00 62 1016.4
20260504233545 5 274 12.9 30.6 0.00 0.00 0.00 62 1016.4
20260504233050 5 259 12.9 30.6 0.00 0.00 0.00 63 1016.5
20260504232523 5 291 11.3 22.5 0.00 0.00 0.00 62 1016.5
20260504232039 5 291 8.0 20.9 0.00 0.00 0.00 62 1016.3
20260504231559 5 311 8.0 22.5 0.00 0.00 0.00 62 1016.4
20260504231022 5 248 6.4 25.7 0.00 0.00 0.00 64 1016.5
20260504230542 5 271 9.7 29.0 0.00 0.00 0.00 64 1016.5
20260504230137 5 295 8.0 29.0 0.00 0.00 0.00 63 1016.4
20260504225543 5 311 6.4 20.9 0.00 0.00 0.00 63 1016.4
20260504225024 5 331 9.7 20.9 0.00 0.00 0.00 62 1016.4
20260504224609 5 220 6.4 29.0 0.00 0.00 0.00 62 1016.4
20260504224026 5 240 11.3 19.3 0.00 0.00 0.00 60 1016.4
20260504223524 6 307 6.4 27.4 0.00 0.00 0.00 59 1016.5
20260504223050 6 291 11.3 27.4 0.00 0.00 0.00 58 1016.3
20260504222536 6 295 6.4 17.7 0.00 0.00 0.00 58 1016.1
20260504222025 6 219 6.4 27.4 0.00 0.00 0.00 57 1016.0
20260504221617 7 275 12.9 27.4 0.00 0.00 0.00 56 1016.2
20260504221038 7 293 8.0 19.3 0.00 0.00 0.00 55 1016.0
20260504220521 7 305 4.8 20.9 0.00 0.00 0.00 55 1016.2
20260504220129 6 318 8.0 20.9 0.00 0.00 0.00 56 1016.0
20260504215546 6 285 9.7 17.7 0.00 0.00 0.00 55 1016.2
20260504215034 7 314 8.0 22.5 0.00 0.00 0.00 54 1016.2
20260504214629 7 279 8.0 22.5 0.00 0.00 0.00 55 1016.2
20260504214035 7 125 6.4 22.5 0.00 0.00 0.00 53 1016.3
20260504213533 7 114 12.9 22.5 0.00 0.00 0.00 52 1016.3
20260504213105 7 77 6.4 16.1 0.00 0.00 0.00 52 1016.2
20260504212536 7 307 6.4 16.1 0.00 0.00 0.00 51 1016.1
20260504212022 7 143 0.0 14.5 0.00 0.00 0.00 52 1016.2
20260504211617 7 253 3.2 19.3 0.00 0.00 0.00 51 1016.2
20260504211021 6 295 4.8 19.3 0.00 0.00 0.00 55 1016.3
20260504210543 6 230 4.8 17.7 0.00 0.00 0.00 52 1016.5
20260504210128 6 311 6.4 19.3 0.00 0.00 0.00 52 1016.4
20260504205535 7 288 8.0 19.3 0.00 0.00 0.00 53 1016.4
20260504205022 7 296 4.8 19.3 0.00 0.00 0.00 51 1016.3
20260504204639 7 316 11.3 19.3 0.00 0.00 0.00 53 1016.9
20260504204034 6 109 4.8 16.1 0.00 0.00 0.00 52 1016.7
20260504203537 6 243 4.8 20.9 0.00 0.00 0.00 52 1016.7
20260504203120 6 51 9.7 22.5 0.00 0.00 0.00 50 1017.0
20260504202535 7 75 6.4 22.5 0.00 0.00 0.00 49 1016.8
20260504202029 6 301 6.4 27.4 0.00 0.00 0.00 50 1016.8
20260504201620 6 312 6.4 27.4 0.00 0.00 0.00 53 1016.7
20260504201059 6 312 6.4 27.4 0.00 0.00 0.00 52 1016.7
20260504200555 6 293 6.4 14.5 0.00 0.00 0.00 52 1016.7
20260504200135 5 296 1.6 19.3 0.00 0.00 0.00 53 1016.7
20260504195533 5 292 9.7 19.3 0.00 0.00 0.00 52 1016.7
20260504195046 5 311 8.0 27.4 0.00 0.00 0.00 51 1016.7
20260504194647 5 216 8.0 27.4 0.00 0.00 0.00 54 1016.6
20260504194027 5 243 9.7 19.3 0.00 0.00 0.00 53 1016.8
20260504193525 5 281 6.4 27.4 0.00 0.00 0.00 54 1016.8
20260504193130 5 308 11.3 27.4 0.00 0.00 0.00 53 1016.8
20260504192531 5 282 8.0 22.5 0.00 0.00 0.00 53 1016.8
20260504192027 5 207 6.4 20.9 0.00 0.00 0.00 53 1016.9
20260504191623 5 231 8.0 17.7 0.00 0.00 0.00 52 1016.8
20260504191100 5 300 6.4 16.1 0.00 0.00 0.00 52 1016.7
20260504190550 5 302 1.6 20.9 0.00 0.00 0.00 53 1016.6
20260504190158 5 319 8.0 20.9 0.00 0.00 0.00 55 1016.6
20260504185536 5 288 6.4 17.7 0.00 0.00 0.00 54 1016.7
20260504185051 5 290 4.8 27.4 0.00 0.00 0.00 55 1016.7
20260504184627 4 273 8.0 27.4 0.00 0.00 0.00 56 1016.9
20260504184048 4 158 3.2 20.9 0.00 0.00 0.00 56 1017.0
20260504183520 4 299 4.8 24.1 0.00 0.00 0.00 57 1017.1
20260504183101 4 268 9.7 24.1 0.00 0.00 0.00 56 1017.0
20260504182532 4 276 4.8 12.9 0.00 0.00 0.00 59 1016.9
20260504182045 4 300 4.8 19.3 0.00 0.00 0.00 60 1017.1
20260504181614 4 283 4.8 19.3 0.00 0.00 0.00 59 1017.1
20260504181055 4 284 6.4 12.9 0.00 0.00 0.00 61 1017.1
20260504180532 4 268 3.2 11.3 0.00 0.00 0.00 62 1017.1
20260504180222 4 225 3.2 11.3 0.00 0.00 0.00 63 1017.1
20260504175604 4 266 3.2 12.9 0.00 0.00 0.00 63 1017.2
20260504175030 4 302 6.4 14.5 0.00 0.00 0.00 64 1017.0
20260504174620 4 285 4.8 14.5 0.00 0.00 0.00 63 1017.0
20260504174025 4 324 4.8 12.9 0.00 0.00 0.00 63 1016.9
20260504173533 4 300 4.8 14.5 0.00 0.00 0.00 63 1017.0
20260504173208 5 280 3.2 12.9 0.00 0.00 0.00 62 1017.1
20260504172539 5 255 4.8 14.5 0.00 0.00 0.00 62 1017.0
20260504172038 5 316 4.8 14.5 0.00 0.00 0.00 61 1017.1
20260504171618 5 256 6.4 14.5 0.00 0.00 0.00 60 1017.0
20260504171023 5 312 3.2 12.9 0.00 0.00 0.00 60 1017.1
20260504170534 5 218 4.8 16.1 0.00 0.00 0.00 59 1017.0
20260504170124 5 278 3.2 16.1 0.00 0.00 0.00 60 1017.1
20260504160142 6 263 3.2 14.5 0.00 0.00 0.00 57 1017.1
20260504151039 4 56 4.8 12.9 0.00 0.00 0.00 63 1016.9
20260504150532 4 268 6.4 14.5 0.00 0.00 0.00 65 1017.0
20260504150142 3 291 3.2 16.1 0.00 0.00 0.00 66 1017.1
20260504141047 2 260 6.4 16.1 0.00 0.00 0.00 68 1017.0
20260504140547 2 313 6.4 19.3 0.00 0.00 0.00 69 1016.8
20260504140130 2 309 9.7 20.9 0.00 0.00 0.00 69 1016.6
20260504130521 2 295 9.7 24.1 0.00 0.00 0.00 70 1016.3
20260504120132 1 195 12.9 32.2 0.00 0.00 0.00 73 1016.0
20260504110526 2 153 14.5 29.0 0.00 0.00 0.00 71 1016.3
20260504110115 2 226 17.7 29.0 0.00 0.00 0.00 71 1016.3
20260504100545 2 309 17.7 40.2 0.00 0.00 0.00 67 1015.3
20260504100117 2 316 16.1 40.2 0.00 0.00 0.00 66 1015.1